| time (UTC) | temp F | wind direction | speed knots | gust knots | rain 1hr in | rain 24hr in | rain mn in | humidity % | barometer mb |
| 20260507094555 | 43 | 44 | 0.9 | 2.6 | 0.00 | 0.00 | 0.00 | 54 | 1018.3 |
| 20260507093053 | 43 | 44 | 1.7 | 2.6 | 0.00 | 0.00 | 0.00 | 54 | 1018.3 |
| 20260507091552 | 43 | 44 | 0.9 | 2.6 | 0.00 | 0.00 | 0.00 | 54 | 1018.3 |
| 20260507090051 | 43 | 44 | 0.9 | 1.7 | 0.00 | 0.00 | 0.00 | 54 | 1018.4 |
| 20260507084554 | 43 | 44 | 0.9 | 2.6 | 0.00 | 0.00 | 0.00 | 54 | 1018.4 |
| 20260507083050 | 44 | 44 | 0.9 | 2.6 | 0.00 | 0.00 | 0.00 | 53 | 1018.4 |
| 20260507081544 | 44 | 44 | 0.0 | 0.0 | 0.00 | 0.00 | 0.00 | 52 | 1018.6 |
| 20260507080057 | 45 | 44 | 0.0 | 1.7 | 0.00 | 0.00 | 0.00 | 52 | 1018.6 |
| 20260507074544 | 45 | 44 | 0.9 | 1.7 | 0.00 | 0.00 | 0.00 | 52 | 1018.5 |
| 20260507073037 | 45 | 44 | 0.9 | 2.6 | 0.00 | 0.00 | 0.00 | 52 | 1018.6 |
| 20260507071552 | 46 | 44 | 0.9 | 2.6 | 0.00 | 0.00 | 0.00 | 51 | 1018.9 |
| 20260507070035 | 46 | 44 | 1.7 | 2.6 | 0.00 | 0.00 | 0.00 | 51 | 1019.0 |
| 20260507064531 | 46 | 44 | 0.9 | 2.6 | 0.00 | 0.01 | 0.00 | 51 | 1019.3 |
| 20260507063032 | 47 | 44 | 0.9 | 2.6 | 0.00 | 0.01 | 0.00 | 50 | 1019.2 |
| 20260507061526 | 48 | 44 | 0.9 | 2.6 | 0.00 | 0.01 | 0.00 | 48 | 1019.2 |
| 20260507060028 | 48 | 44 | 0.0 | 0.0 | 0.00 | 0.01 | 0.00 | 48 | 1019.2 |
| 20260507054521 | 48 | 44 | 0.0 | 0.0 | 0.00 | 0.04 | 0.00 | 47 | 1019.2 |
| 20260507053023 | 48 | 44 | 0.0 | 0.0 | 0.00 | 0.04 | 0.00 | 46 | 1019.2 |
| 20260507051520 | 48 | 44 | 0.0 | 0.0 | 0.00 | 0.04 | 0.00 | 46 | 1019.2 |
| 20260507050016 | 49 | 44 | 0.0 | 0.0 | 0.00 | 0.04 | 0.00 | 43 | 1019.2 |
| 20260507044516 | 49 | 44 | 0.0 | 0.0 | 0.00 | 0.04 | 0.04 | 44 | 1019.1 |
| 20260507043016 | 48 | 44 | 0.0 | 0.0 | 0.00 | 0.04 | 0.04 | 45 | 1019.1 |
| 20260507041515 | 48 | 44 | 0.0 | 0.0 | 0.00 | 0.04 | 0.04 | 46 | 1019.4 |
| 20260507040014 | 48 | 44 | 0.0 | 0.0 | 0.00 | 0.04 | 0.04 | 48 | 1019.4 |
| 20260507034518 | 48 | 44 | 0.0 | 0.0 | 0.00 | 0.04 | 0.04 | 46 | 1019.5 |
| 20260507033014 | 48 | 44 | 0.0 | 0.0 | 0.00 | 0.04 | 0.04 | 47 | 1019.3 |
| 20260507031513 | 48 | 44 | 0.0 | 0.0 | 0.00 | 0.04 | 0.04 | 45 | 1019.4 |
| 20260507030014 | 49 | 44 | 0.0 | 0.0 | 0.00 | 0.04 | 0.04 | 45 | 1019.3 |
| 20260507024512 | 49 | 44 | 0.0 | 0.0 | 0.00 | 0.04 | 0.04 | 44 | 1019.2 |
| 20260507023012 | 50 | 44 | 0.0 | 0.0 | 0.00 | 0.04 | 0.04 | 43 | 1019.1 |
| 20260507021515 | 51 | 44 | 0.0 | 0.0 | 0.00 | 0.04 | 0.04 | 41 | 1019.0 |
| 20260507020011 | 52 | 44 | 0.0 | 0.0 | 0.00 | 0.04 | 0.04 | 37 | 1019.0 |
| 20260507014510 | 54 | 44 | 0.0 | 0.0 | 0.00 | 0.04 | 0.04 | 33 | 1018.9 |
| 20260507013009 | 55 | 44 | 0.0 | 0.0 | 0.00 | 0.04 | 0.04 | 29 | 1018.9 |
| 20260507011516 | 56 | 44 | 0.0 | 1.7 | 0.00 | 0.04 | 0.04 | 27 | 1018.7 |
| 20260507010009 | 57 | 44 | 0.9 | 2.6 | 0.00 | 0.04 | 0.04 | 24 | 1018.6 |
| 20260507004512 | 58 | 44 | 0.9 | 3.5 | 0.00 | 0.04 | 0.04 | 23 | 1018.7 |
| 20260507003009 | 58 | 41 | 1.7 | 7.0 | 0.00 | 0.04 | 0.04 | 22 | 1018.6 |
| 20260507001507 | 59 | 24 | 2.6 | 8.7 | 0.00 | 0.04 | 0.04 | 21 | 1018.7 |
| 20260507000006 | 59 | 32 | 2.6 | 9.6 | 0.00 | 0.04 | 0.04 | 20 | 1018.8 |
| 20260506234510 | 59 | 60 | 3.5 | 9.6 | 0.00 | 0.04 | 0.04 | 21 | 1018.8 |
| 20260506233005 | 60 | 32 | 3.5 | 8.7 | 0.00 | 0.04 | 0.04 | 20 | 1018.6 |
| 20260506231504 | 59 | 54 | 1.7 | 13.0 | 0.00 | 0.04 | 0.04 | 22 | 1018.8 |
| 20260506230004 | 60 | 34 | 4.3 | 11.3 | 0.00 | 0.04 | 0.04 | 22 | 1018.7 |
| 20260506224503 | 60 | 350 | 3.5 | 9.6 | 0.00 | 0.04 | 0.04 | 20 | 1018.8 |
| 20260506223001 | 60 | 44 | 2.6 | 9.6 | 0.00 | 0.04 | 0.04 | 21 | 1018.7 |
| 20260506221501 | 59 | 334 | 3.5 | 10.4 | 0.00 | 0.04 | 0.04 | 21 | 1019.0 |
| 20260506220109 | 59 | 30 | 3.5 | 12.2 | 0.00 | 0.04 | 0.04 | 21 | 1018.9 |
| 20260506220003 | 59 | 9 | 2.6 | 12.2 | 0.00 | 0.04 | 0.04 | 21 | 1018.9 |
| 20260506214558 | 59 | 40 | 2.6 | 11.3 | 0.00 | 0.04 | 0.04 | 22 | 1019.1 |
| 20260506213102 | 60 | 288 | 5.2 | 10.4 | 0.00 | 0.04 | 0.04 | 21 | 1019.1 |
| 20260506211557 | 60 | 355 | 2.6 | 13.9 | 0.00 | 0.04 | 0.04 | 21 | 1019.4 |
| 20260506210107 | 59 | 9 | 4.3 | 13.0 | 0.00 | 0.04 | 0.04 | 22 | 1019.6 |
| 20260506204554 | 59 | 73 | 7.0 | 13.9 | 0.00 | 0.04 | 0.04 | 23 | 1019.8 |
| 20260506203139 | 58 | 360 | 2.6 | 9.6 | 0.00 | 0.04 | 0.04 | 23 | 1019.9 |
| 20260506201551 | 58 | 9 | 4.3 | 11.3 | 0.00 | 0.04 | 0.04 | 24 | 1020.0 |
| 20260506200052 | 58 | 5 | 4.3 | 12.2 | 0.00 | 0.04 | 0.04 | 23 | 1020.2 |
| 20260506194549 | 58 | 69 | 3.5 | 8.7 | 0.00 | 0.04 | 0.04 | 22 | 1020.4 |
| 20260506193045 | 58 | 36 | 3.5 | 9.6 | 0.00 | 0.04 | 0.04 | 24 | 1020.6 |
| 20260506191550 | 57 | 13 | 4.3 | 12.2 | 0.00 | 0.04 | 0.04 | 22 | 1020.5 |
| 20260506190048 | 56 | 70 | 4.3 | 12.2 | 0.00 | 0.04 | 0.04 | 23 | 1020.5 |
| 20260506184551 | 56 | 19 | 2.6 | 9.6 | 0.00 | 0.04 | 0.04 | 25 | 1020.8 |
| 20260506183038 | 55 | 52 | 1.7 | 7.8 | 0.00 | 0.04 | 0.04 | 23 | 1021.0 |
| 20260506181538 | 55 | 16 | 2.6 | 10.4 | 0.00 | 0.04 | 0.04 | 23 | 1021.3 |
| 20260506180038 | 55 | 342 | 5.2 | 11.3 | 0.00 | 0.04 | 0.04 | 23 | 1021.3 |
| 20260506174535 | 55 | 26 | 6.1 | 12.2 | 0.00 | 0.04 | 0.04 | 23 | 1021.3 |
| 20260506173044 | 56 | 63 | 4.3 | 10.4 | 0.00 | 0.04 | 0.04 | 24 | 1021.2 |
| 20260506171535 | 55 | 57 | 7.0 | 13.0 | 0.00 | 0.04 | 0.04 | 23 | 1021.3 |
| 20260506170032 | 55 | 59 | 3.5 | 11.3 | 0.00 | 0.04 | 0.04 | 26 | 1021.3 |
| 20260506164531 | 55 | 51 | 7.0 | 13.9 | 0.00 | 0.05 | 0.04 | 24 | 1021.2 |
| 20260506163050 | 55 | 32 | 7.8 | 14.8 | 0.00 | 0.05 | 0.04 | 26 | 1021.3 |
| 20260506161528 | 55 | 78 | 6.1 | 12.2 | 0.00 | 0.05 | 0.04 | 29 | 1021.0 |
| 20260506160025 | 54 | 34 | 5.2 | 11.3 | 0.00 | 0.05 | 0.04 | 28 | 1020.8 |
| 20260506154532 | 54 | 61 | 6.1 | 13.9 | 0.00 | 0.08 | 0.04 | 28 | 1020.7 |
| 20260506153020 | 54 | 5 | 5.2 | 12.2 | 0.00 | 0.08 | 0.04 | 28 | 1020.6 |
| 20260506151518 | 53 | 76 | 5.2 | 12.2 | 0.00 | 0.08 | 0.04 | 29 | 1020.6 |
| 20260506150016 | 53 | 76 | 4.3 | 13.9 | 0.00 | 0.08 | 0.04 | 31 | 1020.6 |
| 20260506144516 | 53 | 69 | 5.2 | 9.6 | 0.00 | 0.16 | 0.04 | 34 | 1020.6 |
| 20260506143014 | 51 | 42 | 1.7 | 7.0 | 0.00 | 0.16 | 0.04 | 38 | 1020.5 |
| 20260506141506 | 50 | 44 | 2.6 | 5.2 | 0.00 | 0.16 | 0.04 | 41 | 1020.4 |
| 20260506140010 | 50 | 57 | 2.6 | 5.2 | 0.00 | 0.16 | 0.04 | 43 | 1020.1 |
| 20260506134506 | 50 | 69 | 1.7 | 7.8 | 0.00 | 0.23 | 0.04 | 44 | 1020.1 |
| 20260506133002 | 50 | 34 | 3.5 | 8.7 | 0.00 | 0.23 | 0.04 | 43 | 1019.9 |
| 20260506131500 | 49 | 53 | 3.5 | 7.8 | 0.00 | 0.23 | 0.04 | 44 | 1019.6 |
| 20260506130059 | 49 | 34 | 3.5 | 7.0 | 0.00 | 0.23 | 0.04 | 47 | 1019.6 |
| 20260506124558 | 48 | 32 | 2.6 | 4.3 | 0.00 | 0.28 | 0.04 | 51 | 1019.1 |
| 20260506123111 | 47 | 327 | 0.0 | 2.6 | 0.00 | 0.28 | 0.04 | 56 | 1018.8 |
| 20260506121610 | 45 | 317 | 0.0 | 2.6 | 0.00 | 0.28 | 0.04 | 59 | 1018.7 |
| 20260506120052 | 45 | 316 | 0.0 | 0.9 | 0.00 | 0.28 | 0.04 | 61 | 1018.3 |
| 20260506114550 | 45 | 316 | 0.0 | 0.9 | 0.00 | 0.28 | 0.04 | 60 | 1018.1 |
| 20260506113050 | 45 | 316 | 0.0 | 0.9 | 0.00 | 0.28 | 0.04 | 60 | 1018.0 |
| 20260506111550 | 45 | 316 | 0.0 | 0.9 | 0.00 | 0.28 | 0.04 | 60 | 1018.3 |
| 20260506110049 | 45 | 316 | 0.0 | 2.6 | 0.00 | 0.28 | 0.04 | 60 | 1018.4 |
| 20260506104549 | 45 | 313 | 0.0 | 3.5 | 0.00 | 0.28 | 0.04 | 61 | 1018.3 |
| 20260506103046 | 45 | 296 | 0.9 | 7.0 | 0.00 | 0.28 | 0.04 | 62 | 1018.3 |
| 20260506101547 | 45 | 208 | 0.0 | 2.6 | 0.00 | 0.28 | 0.04 | 63 | 1017.8 |
| 20260506100042 | 45 | 208 | 0.0 | 3.5 | 0.00 | 0.28 | 0.04 | 62 | 1017.2 |